Погода в Ямполе

Украина / Винницкая область     48°14′42″N   28°16′40″E
темп.,
°C
ветер,
м/с
пор.,
м/с
влажн.,
%
обл.,
%
осадки,
мм/ч
давл.,
гПа
погр.,
м
22 января, сб
сб2223:00−3з71381100 0.0 1013746
02:00−3з71379100 0.0 1013830
05:00−4з6128895 0.1 1012682
08:00−4зсз51185100 0.1 1013548
11:00−2зсз6875100 0.0 10131005
14:00−2зсз6972100 0.1 10131034
17:00−3з498897 0.0 1014451
20:00−3ссз5118568 0.1 1016578
23 января, вс
вс2323:00−5сз41086100 0.0 1019473
02:00−4сз51090100 0.2 1019693
05:00−4сз4990100 0.1 1019599
08:00−4сз3894100 0.5 1019589
11:00−4ссв6884100 0.4 1021760
14:00−4с6874100 0.5 1022812
17:00−5ссв5108144 0.1 1025540
20:00−6ссв6108670 0.1 1028566
24 января, пн
пн2423:00−8с498970 0.0 1031369
02:00−9с499044 0.0 1032298
05:00−9ссз5109141 0.0 1033316
08:00−9ссз5128953 0.0 1034378
11:00−6ссз7117998 0.0 1034528
14:00−5ссз81478100 0.0 1032670
17:00−6ссз71481100 0.0 1032635
20:00−6ссз71483100 0.0 1032620
25 января, вт
вт2523:00−6ссз6118799 0.6 1032593
02:00−7ссз51091100 0.8 1031477
05:00−8сз51187100 0.1 1030420
08:00−9ссз51186100 0.1 1031411
11:00−6ссз5974100 0.0 1030471
14:00−4сз576662 0.0 1027598
17:00−7сз358236 0.0 1026113
20:00−9зсз229310 0.0 102633
26 января, ср
ср2623:00−8зюз1295100 0.1 102498
02:00−6юз1296100 0.8 102296
05:00−5зюз1297100 0.9 102076
08:00−4сз2597100 1.7 1020205
11:00−1ссз5991100 0.6 1021674
14:00−1ссз61083100 0.8 1022912
17:00−4ссз4889100 0.1 1024211
20:00−3сз4993100 0.1 1025403